SL-14 DEB, 47078

Orbit data source: Space-Track

SL-14 DEB, 47078 is space debris in LEO originally from a launch on Thu, 15 Aug 1991 UTC launched from the Plesetsk Missile And Space Complex (PKMTR). Debris objects in space refer to the collection of defunct objects orbiting the Earth. Examples of debris include non-operational satellites, rocket bodies, and fragments generated from explosions, collisions, or faulty payload assembly.

Loading next visibility...
Identifier
47078, 1991-056DC
Orbit
LEO
Country
Flag of CISCIS
Related business
Manufacturer
Unknown
Mission
Spacecraft
Bus & Motor
Unknown
Mass
Unknown
Launch date (UTC)
1991-08-15 (34 years ago)
Launch vehicle
Unknown
Launch site
Plesetsk Missile And Space Complex (PKMTR)
Object type
Payload
Rocket body
Debris
Shape & HBR
Unknown
Radar Cross Section
Small (<0.1 m²)

Expand to show TLE details & history
Last TLE update: 2 days ago

TLE from 2 days ago
0 SL-14 DEB
1 47078U 91056DC  25258.84204596  .00000868  00000-0  18385-2 0  9996
2 47078  82.5525 306.6705 0039752 264.5287  95.1308 13.29548179236075
Epoch: 2025-09-15T20:12Z
TLE epoch observation values (Epoch: 2025-09-15T20:12:32.77Z)
Latitude
0.00002°
Longitude
8.49306°
Altitude
1,154.087 km
Speed
7.275 km/s
True Right ascension
20h 26m 40s
True Declination
0° 00' 00"
Sunlit
Object was in full shadow at epoch
Visualization orbit readout
Latitude
Unknown
Longitude
Unknown
Altitude
Unknown
Speed
Unknown
Apparent Right ascension
Unknown
Apparent Declination
Unknown
Sunlit
N/A
Visualization observer readout
Local Sidereal Time
01:04:33
Azimuth
Unknown
Elevation
Unknown
Doppler factor
Unknown
Orbital elements
Apogee altitude
1,175.604 km
Perigee altitude
1,115.786 km
Semi-major axis
7,523.832 km
Eccentricity
0.00398
Inclination
82.5525°
RAAN
306.6705°
Arg. of periapsis
264.5287°
True anomaly
95.58429°
Mean anomaly
95.1308°
Eccentric anomaly
95.35757°
Mean motion
3.32571 °/min
Orbital period
108.25 mins
BSTAR
0.0018385
Loading maneuver chart data...
Computing Atmospheric mass density...
Loading historical data...
Loading historical data...
Loading historical data...
Loading historical data...
Loading historical data...
Loading historical data...
Loading historical data...

Documentation

Showing up to 5 results
|